This is the latest recevied weather packets stored in our database for station/object SP8PUB-10. If no packets are shown the sender has not sent any weather packets the latest 10 day(s).
| Time | Temp. | Humidity | Pressure | Rain* | Wind** | Luminosity | Snow |
|---|---|---|---|---|---|---|---|
| 1778026389 | 12.22° C | 60% | 1009.1 hPa | - | - | - | - |
| 1778025488 | 13.33° C | 58% | 1009.2 hPa | - | - | - | - |
| 1778024589 | 15° C | 53% | 1009 hPa | - | - | - | - |
| 1778023688 | 15° C | 52% | 1009.1 hPa | - | - | - | - |
| 1778022788 | 14.44° C | 54% | 1009.2 hPa | - | - | - | - |
| 1778021888 | 14.44° C | 54% | 1009.1 hPa | - | - | - | - |
| 1778020093 | 15° C | 52% | 1009.2 hPa | - | - | - | - |
| 1778019193 | 15.56° C | 52% | 1009.3 hPa | - | - | - | - |
| 1778018292 | 15.56° C | 51% | 1009.4 hPa | - | - | - | - |
| 1778017392 | 16.11° C | 50% | 1009.5 hPa | - | - | - | - |
| 1778016492 | 16.11° C | 49% | 1009.4 hPa | - | - | - | - |
| 1778015592 | 16.67° C | 49% | 1009.5 hPa | - | - | - | - |
| 1778014692 | 17.22° C | 48% | 1009.5 hPa | - | - | - | - |
| 1778013792 | 17.22° C | 48% | 1009.6 hPa | - | - | - | - |
| 1778012892 | 17.78° C | 47% | 1009.5 hPa | - | - | - | - |
| 1778011992 | 17.78° C | 47% | 1009.5 hPa | - | - | - | - |
| 1778011092 | 18.33° C | 47% | 1009.3 hPa | - | - | - | - |
| 1778010191 | 18.33° C | 46% | 1009.2 hPa | - | - | - | - |
| 1778009291 | 18.89° C | 46% | 1009.3 hPa | - | - | - | - |
| 1778008391 | 19.44° C | 45% | 1009.3 hPa | - | - | - | - |
| 1778007491 | 19.44° C | 45% | 1009.2 hPa | - | - | - | - |
| 1778006591 | 20° C | 44% | 1009.2 hPa | - | - | - | - |
| 1778005691 | 20.56° C | 44% | 1009.1 hPa | - | - | - | - |
| 1778004791 | 20.56° C | 43% | 1009.1 hPa | - | - | - | - |
| 1778003891 | 21.11° C | 43% | 1009 hPa | - | - | - | - |
* Rain since midnight (hover to see other rain measurements)
** Current wind speed in m/s (hover to see current wind gust speed)